ATLAS CENTAUR 2 DEB, 19638

Orbit data source: Space-Track

ATLAS CENTAUR 2 DEB, 19638 is space debris in LEO originally from a launch on Wed, 27 Nov 1963 UTC launched from the Air Force Eastern Test Range (AFETR). Debris objects in space refer to the collection of defunct objects orbiting the Earth. Examples of debris include non-operational satellites, rocket bodies, and fragments generated from explosions, collisions, or faulty payload assembly.

Loading next visibility...
Identifier
19638, 1963-047S
Orbit
LEO
Last TLE update
1 day ago
Origin
Manufacturer
Unknown
Mission
Spacecraft
Bus & Motor
Unknown
Mass
Unknown
Launch date (UTC)
1963-11-27 (62 years ago)
Launch vehicle
Unknown
Launch site
Air Force Eastern Test Range (AFETR)
Object type
Payload
Rocket body
Debris
Shape & HBR
Unknown
Radar Cross Section
Small (<0.1 m²)

Expand to show TLE details & history

TLE from 1 day ago
0 ATLAS CENTAUR 2 DEB
1 19638U 63047S   25181.43335847  .00003350  00000-0  88262-2 0  9990
2 19638  31.0068 281.2627 0672178 107.7082 327.7014 12.54345691530429
Epoch: 2025-06-30T10:24Z
TLE epoch observation values (Epoch: 2025-06-30T10:24:02.171Z)
Latitude
29.27057°
Longitude
-85.41176°
Altitude
1,012.345 km
Speed
7.55 km/s
True Right ascension
23h 17m 21s
True Declination
29° 07' 45"
Sunlit
Object was in daylight at epoch
Visualization orbit readout
Latitude
-21.48041°
Longitude
61.66245°
Altitude
1,586.552 km
Speed
7.015 km/s
Apparent Right ascension
11h 49m 43s
Apparent Declination
-48° 31' 56"
Sunlit
Object is in daylight
Visualization observer readout
Local Sidereal Time
05:23:05
Azimuth
128.622° SE
Elevation
-32.663°
Doppler factor
1
Orbital elements
Apogee altitude
1,975.964 km
Perigee altitude
923.612 km
Semi-major axis
7,827.925 km
Eccentricity
0.06722
Inclination
31.0068°
RAAN
281.2627°
Arg. of periapsis
107.7082°
True anomaly
Unknown
Mean anomaly
327.7014°
Eccentric anomaly
Unknown
Mean motion
3.13381 °/min
Orbital period
114.88 mins
BSTAR
0.0088262
Loading maneuver chart data...
Loading SW <> Apogee altitude chart data...

ATLAS CENTAUR 2 DEB Visibility forecast

Observer location: undefined°, undefined°

Span
Click to sort rows by Start time (UTC) header in descending order
Start Az.
Max El. time (UTC)
Max El. Az.
Max El.
End time (UTC)
End Az.
6 mins2025-07-02 08:02:27.033Z177.396° S2025-07-02 08:06:27.033Z149.461° SSE13.018°2025-07-02 08:08:27.033Z133.998° SE
10 mins2025-07-02 10:02:27.033Z214.637° SW2025-07-02 10:07:27.033Z168.63° S25.853°2025-07-02 10:12:27.033Z112.849° SE
10 mins2025-07-02 12:04:27.033Z238.795° WSW2025-07-02 12:09:27.033Z176.119° S31.929°2025-07-02 12:14:27.033Z115.034° SE
9 mins2025-07-02 14:06:27.033Z246.183° WSW2025-07-02 14:10:27.033Z197.75° SSW25.852°2025-07-02 14:15:27.033Z138.341° SSE
|